CW1575 Weather Reports


Display with metric or nautical units.
time (UTC)temp
F
wind
direction
speed
MPH
gust
MPH
rain 1hr
in
rain 24hr
in
rain mn
in
humidity
%
barometer
mb
20161001070508 51 194 0.0 0.0 0.00 0.00 0.00 83 1022.1
20161001070008 51 194 0.0 0.0 0.00 0.00 0.00 83 1022.1
20161001065508 51 194 0.0 0.0 0.00 0.00 0.00 82 1022.2
20161001065009 52 194 0.0 0.0 0.00 0.00 0.00 82 1022.3
20161001064508 52 194 0.0 0.0 0.00 0.00 0.00 82 1022.3
20161001064008 52 194 0.0 0.0 0.00 0.00 0.00 81 1022.3
20161001063509 52 194 0.0 0.0 0.00 0.00 0.00 81 1022.3
20161001063009 52 194 0.0 0.0 0.00 0.00 0.00 81 1022.1
20161001062508 52 194 0.0 0.0 0.00 0.00 0.00 80 1022.2
20161001062008 52 194 0.0 0.0 0.00 0.00 0.00 80 1022.3
20161001061508 53 194 0.0 0.0 0.00 0.00 0.00 79 1022.4
20161001061009 53 194 0.0 0.0 0.00 0.00 0.00 79 1022.2
20161001060508 53 194 0.0 0.0 0.00 0.00 0.00 79 1022.3
20161001060008 53 194 0.0 0.0 0.00 0.00 0.00 79 1022.2
20161001055510 53 194 0.0 0.0 0.00 0.00 0.00 79 1022.3
20161001055009 53 194 0.0 0.0 0.00 0.00 0.00 79 1022.4
20161001054508 54 194 0.0 0.0 0.00 0.00 0.00 78 1022.3
20161001054008 54 194 0.0 0.0 0.00 0.00 0.00 77 1022.4
20161001053508 54 194 0.0 0.0 0.00 0.00 0.00 77 1022.4
20161001053008 54 194 0.0 0.0 0.00 0.00 0.00 77 1022.2
20161001052508 54 194 0.0 0.0 0.00 0.00 0.00 76 1022.2
20161001052008 54 194 0.0 0.0 0.00 0.00 0.00 77 1022.3
20161001051507 55 194 0.0 0.0 0.00 0.00 0.00 77 1022.3
20161001051008 55 194 0.0 0.0 0.00 0.00 0.00 76 1022.3
20161001050508 55 194 0.0 0.0 0.00 0.00 0.00 76 1022.4
20161001050008 55 194 0.0 0.0 0.00 0.00 0.00 76 1022.7
20161001045509 55 194 0.0 0.0 0.00 0.00 0.00 76 1022.4
20161001045009 55 194 0.0 0.0 0.00 0.00 0.00 74 1022.6
20161001044508 55 194 0.0 0.0 0.00 0.00 0.00 74 1022.5
20161001044008 56 194 0.0 0.0 0.00 0.00 0.00 74 1022.6
20161001043508 56 194 0.0 0.0 0.00 0.00 0.00 73 1022.5
20161001043009 56 194 0.0 0.0 0.00 0.00 0.00 73 1022.6
20161001042508 56 194 0.0 0.0 0.00 0.00 0.00 73 1022.5
20161001042008 56 194 0.0 0.0 0.00 0.00 0.00 73 1022.5
20161001041508 57 194 0.0 0.0 0.00 0.00 0.00 73 1022.5
20161001041008 57 194 0.0 0.0 0.00 0.00 0.00 72 1022.5
20161001040507 57 194 0.0 0.0 0.00 0.00 0.00 71 1022.5
20161001040008 57 194 0.0 0.0 0.00 0.00 0.00 71 1022.4
20161001035508 57 194 0.0 0.0 0.00 0.00 0.00 71 1022.4
20161001035008 58 194 0.0 0.0 0.00 0.00 0.00 70 1022.4
20161001034508 58 194 0.0 0.0 0.00 0.00 0.00 70 1022.4
20161001034009 58 194 0.0 0.0 0.00 0.00 0.00 68 1022.5
20161001033508 58 194 0.0 0.0 0.00 0.00 0.00 68 1022.5
20161001033008 59 194 0.0 0.0 0.00 0.00 0.00 68 1022.4
20161001032508 59 194 0.0 0.0 0.00 0.00 0.00 68 1022.4
20161001032008 59 194 0.0 0.0 0.00 0.00 0.00 67 1022.3
20161001031508 59 194 0.0 0.0 0.00 0.00 0.00 67 1022.3
20161001031009 59 194 0.0 0.0 0.00 0.00 0.00 66 1022.3
20161001030508 60 194 0.0 0.0 0.00 0.00 0.00 66 1022.2
20161001030008 60 194 0.0 0.0 0.00 0.00 0.00 66 1022.2
20161001025508 60 194 0.0 0.0 0.00 0.00 0.00 65 1022.2
20161001025008 60 194 0.0 0.0 0.00 0.00 0.00 65 1022.3
20161001024509 61 194 0.0 0.0 0.00 0.00 0.00 65 1022.2
20161001024009 61 194 0.0 0.0 0.00 0.00 0.00 64 1022.2
20161001023508 61 194 0.0 0.0 0.00 0.00 0.00 64 1022.3
20161001023009 61 194 0.0 0.0 0.00 0.00 0.00 63 1022.3
20161001022508 62 194 0.0 0.0 0.00 0.00 0.00 63 1022.1
20161001022009 62 194 0.0 0.0 0.00 0.00 0.00 63 1022.1
20161001021508 62 194 0.0 0.0 0.00 0.00 0.00 62 1022.4
20161001021008 63 194 0.0 0.0 0.00 0.00 0.00 61 1022.3
20161001020508 63 194 0.0 0.0 0.00 0.00 0.00 61 1022.3
20161001020008 63 194 0.0 1.0 0.00 0.00 0.00 61 1022.3
20161001015508 63 194 0.0 2.0 0.00 0.00 0.00 60 1022.3
20161001014508 64 194 0.0 3.0 0.00 0.00 0.00 60 1022.2
20161001014008 64 195 1.0 3.0 0.00 0.00 0.00 60 1022.3
20161001013508 64 207 1.0 2.0 0.00 0.00 0.00 59 1022.3
20161001013009 64 207 1.0 3.0 0.00 0.00 0.00 58 1022.4
20161001012508 65 195 1.0 3.0 0.00 0.00 0.00 58 1022.4
20161001012008 65 216 0.0 3.0 0.00 0.00 0.00 57 1022.5
20161001011508 65 180 1.0 3.0 0.00 0.00 0.00 56 1022.5
20161001011008 65 192 1.0 3.0 0.00 0.00 0.00 57 1022.5
20161001010508 66 179 1.0 3.0 0.00 0.00 0.00 56 1022.5
20161001010008 66 198 1.0 2.0 0.00 0.00 0.00 56 1022.5
20161001005508 66 198 0.0 1.0 0.00 0.00 0.00 55 1022.4
20161001005008 67 198 0.0 0.0 0.00 0.00 0.00 55 1022.5
20161001004508 67 198 0.0 0.0 0.00 0.00 0.00 55 1022.4
20161001004009 67 198 0.0 0.0 0.00 0.00 0.00 54 1022.5
20161001003508 67 198 0.0 0.0 0.00 0.00 0.00 53 1022.5
20161001003008 68 198 0.0 0.0 0.00 0.00 0.00 54 1022.6
20161001002508 68 198 0.0 1.0 0.00 0.00 0.00 53 1022.6
20161001002008 68 198 0.0 1.0 0.00 0.00 0.00 52 1022.5
20161001001508 69 198 0.0 1.0 0.00 0.00 0.00 52 1022.6
20161001001009 69 198 0.0 0.0 0.00 0.00 0.00 51 1022.5
20161001000508 69 198 0.0 1.0 0.00 0.00 0.00 50 1022.5
20161001000008 70 198 0.0 0.0 0.00 0.00 0.00 49 1022.5
20160930235507 70 198 0.0 0.0 0.00 0.00 0.00 49 1022.5
20160930235008 70 198 0.0 1.0 0.00 0.00 0.00 47 1022.6
20160930234508 70 198 0.0 2.0 0.00 0.00 0.00 46 1022.6
20160930234008 71 208 0.0 2.0 0.00 0.00 0.00 46 1022.6
20160930233507 71 268 0.0 1.0 0.00 0.00 0.00 46 1022.5
20160930233008 71 268 0.0 3.0 0.00 0.00 0.00 45 1022.6
20160930232508 71 228 2.0 3.0 0.00 0.00 0.00 44 1022.4
20160930232008 71 309 3.0 7.0 0.00 0.00 0.00 43 1022.5
20160930231508 71 252 1.0 3.0 0.00 0.00 0.00 44 1022.5
20160930231008 71 288 0.0 2.0 0.00 0.00 0.00 42 1022.4
20160930230508 71 288 3.0 6.0 0.00 0.00 0.00 42 1022.4
20160930230008 71 292 0.0 1.0 0.00 0.00 0.00 42 1022.8
20160930225508 72 292 1.0 3.0 0.00 0.00 0.00 42 1022.7
20160930225008 72 292 1.0 3.0 0.00 0.00 0.00 41 1022.9
20160930224507 72 292 1.0 3.0 0.00 0.00 0.00 42 1022.7
20160930224008 72 292 1.0 3.0 0.00 0.00 0.00 41 1022.6
20160930223508 73 317 1.0 2.0 0.00 0.00 0.00 41 1022.5
20160930223008 73 317 1.0 5.0 0.00 0.00 0.00 39 1022.5
20160930222508 73 331 2.0 7.0 0.00 0.00 0.00 39 1022.4
20160930222009 73 19 3.0 6.0 0.00 0.00 0.00 39 1022.5
20160930221508 74 19 2.0 6.0 0.00 0.00 0.00 39 1022.4
20160930221008 74 323 1.0 5.0 0.00 0.00 0.00 39 1022.3
20160930220507 74 88 0.0 3.0 0.00 0.00 0.00 38 1022.3
20160930220008 74 20 1.0 5.0 0.00 0.00 0.00 40 1022.3
20160930215508 73 330 2.0 3.0 0.00 0.00 0.00 40 1022.5
20160930215009 73 11 3.0 5.0 0.00 0.00 0.00 41 1022.5
20160930214507 73 13 3.0 6.0 0.00 0.00 0.00 41 1022.4
20160930214008 73 5 0.0 3.0 0.00 0.00 0.00 41 1022.4
20160930213508 73 5 0.0 3.0 0.00 0.00 0.00 40 1022.5
20160930213009 73 339 1.0 3.0 0.00 0.00 0.00 42 1022.4
20160930212508 73 332 2.0 3.0 0.00 0.00 0.00 41 1022.3
20160930212008 73 29 1.0 3.0 0.00 0.00 0.00 40 1022.4
20160930211508 73 101 0.0 3.0 0.00 0.00 0.00 40 1022.5
20160930211008 74 34 0.0 3.0 0.00 0.00 0.00 40 1022.3
20160930210508 74 101 1.0 3.0 0.00 0.00 0.00 39 1022.4
20160930210008 74 324 0.0 2.0 0.00 0.00 0.00 41 1022.9
20160930205508 73 292 0.0 7.0 0.00 0.00 0.00 40 1022.9
20160930205008 73 15 5.0 9.0 0.00 0.00 0.00 41 1023.1
20160930204507 73 25 2.0 8.0 0.00 0.00 0.00 43 1023.1
20160930204008 73 28 2.0 6.0 0.00 0.00 0.00 43 1023.2
20160930203508 72 58 1.0 3.0 0.00 0.00 0.00 43 1023.2
20160930203016 72 45 1.0 5.0 0.00 0.00 0.00 43 1023.1
20160930202508 72 89 3.0 8.0 0.00 0.00 0.00 43 1023.1
20160930202008 72 32 3.0 6.0 0.00 0.00 0.00 44 1023.2
20160930201508 71 10 2.0 3.0 0.00 0.00 0.00 44 1023.5
20160930201008 71 13 0.0 2.0 0.00 0.00 0.00 45 1023.6
20160930200508 71 16 2.0 6.0 0.00 0.00 0.00 45 1023.7
20160930200008 71 317 1.0 3.0 0.00 0.00 0.00 46 1023.7
20160930195508 71 12 3.0 6.0 0.00 0.00 0.00 45 1023.7
20160930195008 71 355 1.0 3.0 0.00 0.00 0.00 47 1023.8
20160930194508 71 308 3.0 7.0 0.00 0.00 0.00 45 1023.9
20160930194008 71 326 2.0 6.0 0.00 0.00 0.00 45 1024.0
20160930193508 71 324 2.0 3.0 0.00 0.00 0.00 46 1024.0
20160930193010 71 322 3.0 6.0 0.00 0.00 0.00 45 1024.1
20160930192508 71 332 2.0 3.0 0.00 0.00 0.00 45 1024.2
20160930192008 71 311 2.0 7.0 0.00 0.00 0.00 46 1024.2
20160930191508 71 318 3.0 8.0 0.00 0.00 0.00 45 1024.1
20160930191008 70 345 3.0 8.0 0.00 0.00 0.00 46 1024.2
20160930190508 70 307 2.0 8.0 0.00 0.00 0.00 46 1024.1
20160930190008 69 38 2.0 5.0 0.00 0.00 0.00 48 1024.5
20160930185508 69 27 2.0 5.0 0.00 0.00 0.00 49 1024.6
20160930185008 68 330 2.0 5.0 0.00 0.00 0.00 49 1024.6
20160930184508 68 350 2.0 8.0 0.00 0.00 0.00 48 1024.8
20160930184008 67 28 2.0 6.0 0.00 0.00 0.00 49 1024.7
20160930183508 67 5 0.0 1.0 0.00 0.00 0.00 49 1024.8
20160930183008 67 5 3.0 7.0 0.00 0.00 0.00 50 1024.9
20160930182508 67 28 2.0 5.0 0.00 0.00 0.00 50 1024.9
20160930182008 67 21 3.0 9.0 0.00 0.00 0.00 50 1024.8
20160930181508 67 17 3.0 9.0 0.00 0.00 0.00 50 1024.8
20160930181008 67 33 4.0 8.0 0.00 0.00 0.00 49 1024.8
20160930180508 67 18 3.0 6.0 0.00 0.00 0.00 49 1024.8
20160930180008 67 19 2.0 3.0 0.00 0.00 0.00 49 1024.8
20160930175508 68 26 2.0 3.0 0.00 0.00 0.00 48 1024.8
20160930175008 68 27 1.0 5.0 0.00 0.00 0.00 48 1024.7
20160930174507 68 29 1.0 3.0 0.00 0.00 0.00 47 1024.8
20160930174008 69 88 1.0 3.0 0.00 0.00 0.00 46 1024.8
20160930173508 69 94 1.0 3.0 0.00 0.00 0.00 46 1024.8
20160930173008 70 84 1.0 3.0 0.00 0.00 0.00 45 1024.9
20160930172508 70 14 2.0 5.0 0.00 0.00 0.00 46 1024.8
20160930172008 70 5 0.0 3.0 0.00 0.00 0.00 44 1025.0
20160930171508 70 4 2.0 5.0 0.00 0.00 0.00 45 1025.0
20160930171009 70 19 1.0 3.0 0.00 0.00 0.00 46 1025.1
20160930170508 70 19 0.0 3.0 0.00 0.00 0.00 45 1025.3
20160930170008 70 352 1.0 3.0 0.00 0.00 0.00 46 1025.2
20160930165507 70 325 2.0 3.0 0.00 0.00 0.00 46 1025.4
20160930165008 69 16 3.0 7.0 0.00 0.00 0.00 47 1025.4
20160930164508 69 31 3.0 5.0 0.00 0.00 0.00 47 1025.5
20160930164008 68 326 3.0 9.0 0.00 0.00 0.00 48 1025.1
20160930163508 68 329 3.0 8.0 0.00 0.00 0.00 49 1025.1
20160930163008 67 287 1.0 3.0 0.00 0.00 0.00 49 1025.1
20160930162508 67 198 0.0 2.0 0.00 0.00 0.00 49 1025.1
20160930162008 66 184 1.0 3.0 0.00 0.00 0.00 50 1025.1
20160930161508 65 163 1.0 3.0 0.00 0.00 0.00 50 1025.1
20160930161009 64 159 1.0 2.0 0.00 0.00 0.00 51 1025.1
20160930160508 63 159 0.0 3.0 0.00 0.00 0.00 53 1025.0
20160930160008 62 220 0.0 0.0 0.00 0.00 0.00 56 1025.1
20160930155508 61 220 0.0 0.0 0.00 0.00 0.00 58 1025.1
20160930155009 61 267 0.0 0.0 0.00 0.00 0.00 59 1025.1
20160930154508 60 291 0.0 0.0 0.00 0.00 0.00 60 1025.1
20160930154008 60 290 0.0 0.0 0.00 0.00 0.00 61 1025.1
20160930153507 59 290 0.0 0.0 0.00 0.00 0.00 62 1025.1
20160930153008 59 290 0.0 0.0 0.00 0.00 0.00 63 1024.9
20160930152508 59 290 0.0 0.0 0.00 0.00 0.00 64 1024.9
20160930152008 58 290 0.0 0.0 0.00 0.00 0.00 65 1024.8
20160930151508 58 290 0.0 0.0 0.00 0.00 0.00 67 1024.9
20160930151008 57 290 0.0 0.0 0.00 0.00 0.00 67 1024.9
20160930150508 57 290 0.0 0.0 0.00 0.00 0.00 69 1024.9
20160930150008 57 290 0.0 0.0 0.00 0.00 0.00 68 1024.9
20160930145508 56 290 0.0 0.0 0.00 0.00 0.00 69 1024.8
20160930145008 56 290 0.0 0.0 0.00 0.00 0.00 69 1024.8
20160930144508 56 290 0.0 0.0 0.00 0.00 0.00 69 1024.7
20160930144008 56 290 0.0 0.0 0.00 0.00 0.00 69 1024.7
20160930143508 56 290 0.0 0.0 0.00 0.00 0.00 69 1024.7
20160930143008 55 290 0.0 0.0 0.00 0.00 0.00 69 1024.7
20160930142508 55 290 0.0 0.0 0.00 0.00 0.00 68 1024.7
20160930142007 55 290 0.0 0.0 0.00 0.00 0.00 68 1024.8
20160930141508 55 290 0.0 0.0 0.00 0.00 0.00 68 1024.8
20160930141008 55 290 0.0 0.0 0.00 0.00 0.00 67 1024.7
20160930140507 55 290 0.0 0.0 0.00 0.00 0.00 67 1024.7
20160930140007 55 290 0.0 0.0 0.00 0.00 0.00 67 1024.7
20160930135508 55 290 0.0 0.0 0.00 0.00 0.00 67 1024.7
20160930135008 55 290 0.0 0.0 0.00 0.00 0.00 67 1024.6
20160930134507 55 291 0.0 0.0 0.00 0.00 0.00 67 1024.6
20160930134008 55 291 0.0 0.0 0.00 0.00 0.00 67 1024.6
20160930133508 55 291 0.0 0.0 0.00 0.00 0.00 68 1024.7
20160930133008 55 291 0.0 0.0 0.00 0.00 0.00 68 1024.6
20160930132508 55 291 0.0 0.0 0.00 0.00 0.00 67 1024.5
20160930132008 55 291 0.0 0.0 0.00 0.00 0.00 67 1024.4
20160930131508 55 291 0.0 0.0 0.00 0.00 0.00 67 1024.4
20160930131008 55 291 0.0 0.0 0.00 0.00 0.00 67 1024.4
20160930130508 55 291 0.0 0.0 0.00 0.00 0.00 67 1024.4
20160930130007 55 291 0.0 1.0 0.00 0.00 0.00 66 1023.9
20160930125508 55 291 0.0 1.0 0.00 0.00 0.00 66 1023.9
20160930125008 55 291 0.0 1.0 0.00 0.00 0.00 66 1023.8
20160930124508 55 291 0.0 0.0 0.00 0.00 0.00 66 1023.9
20160930124008 55 291 0.0 0.0 0.00 0.00 0.00 66 1023.9
20160930123508 55 291 0.0 0.0 0.00 0.00 0.00 66 1023.9
20160930123008 55 291 0.0 0.0 0.00 0.00 0.00 66 1023.8
20160930122508 55 291 0.0 0.0 0.00 0.00 0.00 66 1024.0
20160930122008 54 291 0.0 0.0 0.00 0.00 0.00 66 1023.9
20160930121507 54 291 0.0 0.0 0.00 0.00 0.00 66 1024.0
20160930121008 54 291 0.0 1.0 0.00 0.00 0.00 67 1024.0
20160930120508 54 341 0.0 2.0 0.00 0.00 0.00 66 1024.0
20160930120008 54 318 1.0 3.0 0.00 0.00 0.00 67 1024.0
20160930115509 54 0 0.0 0.0 0.00 0.00 0.00 67 1024.0
20160930115008 54 0 0.0 0.0 0.00 0.00 0.00 67 1024.0
20160930114508 54 0 0.0 1.0 0.00 0.00 0.00 68 1023.8
20160930114008 54 0 1.0 2.0 0.00 0.00 0.00 68 1023.7
20160930113508 54 0 1.0 2.0 0.00 0.00 0.00 70 1023.7
20160930113008 54 58 1.0 2.0 0.00 0.00 0.00 71 1023.8
20160930112508 54 96 0.0 2.0 0.00 0.00 0.00 71 1023.7
20160930112009 53 96 0.0 2.0 0.00 0.00 0.00 71 1023.7
20160930111508 53 96 0.0 0.0 0.00 0.00 0.00 71 1023.7
20160930111008 53 96 0.0 0.0 0.00 0.00 0.00 71 1023.7
20160930110508 53 96 0.0 1.0 0.00 0.00 0.00 72 1023.8
20160930110008 53 96 0.0 1.0 0.00 0.00 0.00 72 1023.9
20160930105508 53 96 0.0 3.0 0.00 0.00 0.00 72 1023.9
20160930105008 53 96 0.0 2.0 0.00 0.00 0.00 72 1024.0
20160930104508 53 96 0.0 0.0 0.00 0.00 0.00 73 1023.8
20160930104008 53 96 0.0 0.0 0.00 0.00 0.00 73 1023.8
20160930103508 53 96 0.0 1.0 0.00 0.00 0.00 73 1023.8
20160930103008 53 96 0.0 1.0 0.00 0.00 0.00 73 1023.7
20160930102508 53 96 0.0 0.0 0.00 0.00 0.00 73 1023.7
20160930102009 52 96 0.0 1.0 0.00 0.00 0.00 73 1023.6
20160930101508 52 96 0.0 1.0 0.00 0.00 0.00 73 1023.6
20160930101008 52 96 0.0 1.0 0.00 0.00 0.00 73 1023.8
20160930100508 52 96 0.0 0.0 0.00 0.00 0.00 73 1023.7
20160930100008 52 96 0.0 1.0 0.00 0.00 0.00 74 1023.8
20160930095508 52 96 0.0 0.0 0.00 0.00 0.00 74 1024.0
20160930095008 52 96 0.0 1.0 0.00 0.00 0.00 74 1024.1
20160930094508 52 96 0.0 0.0 0.00 0.00 0.00 74 1023.9
20160930094008 51 96 0.0 0.0 0.00 0.00 0.00 74 1024.0
20160930093508 51 96 0.0 0.0 0.00 0.00 0.00 73 1023.9
20160930093008 51 96 0.0 0.0 0.00 0.00 0.00 73 1023.8
20160930092508 51 96 0.0 0.0 0.00 0.00 0.00 73 1023.9
20160930092007 51 96 0.0 2.0 0.00 0.00 0.00 73 1024.0
20160930091508 51 96 0.0 2.0 0.00 0.00 0.00 72 1024.1
20160930091008 51 96 0.0 0.0 0.00 0.00 0.00 72 1024.2
20160930090507 51 96 0.0 0.0 0.00 0.00 0.00 71 1024.3
20160930090007 51 96 0.0 0.0 0.00 0.00 0.00 71 1023.9
20160930085508 51 96 0.0 0.0 0.00 0.00 0.00 71 1024.2
20160930085008 52 96 0.0 1.0 0.00 0.00 0.00 71 1024.1
20160930084508 52 96 0.0 1.0 0.00 0.00 0.00 71 1024.1
20160930084008 52 96 0.0 0.0 0.00 0.00 0.00 71 1024.1
20160930083507 52 96 0.0 0.0 0.00 0.00 0.00 71 1024.2
20160930083008 52 96 0.0 0.0 0.00 0.00 0.00 71 1024.2
20160930082508 52 96 0.0 0.0 0.00 0.00 0.00 70 1024.1
20160930082008 52 96 0.0 0.0 0.00 0.00 0.00 70 1024.2
20160930081508 52 96 0.0 0.0 0.00 0.00 0.00 71 1024.1
20160930081008 52 96 0.0 0.0 0.00 0.00 0.00 69 1023.9
20160930080508 52 96 0.0 1.0 0.00 0.00 0.00 68 1023.9
20160930080008 52 96 0.0 0.0 0.00 0.00 0.00 68 1023.8
20160930075508 53 96 0.0 0.0 0.00 0.00 0.00 68 1023.8
20160930075008 53 96 0.0 0.0 0.00 0.00 0.00 69 1023.7
20160930074507 53 96 0.0 0.0 0.00 0.00 0.00 70 1023.7
20160930074008 53 96 0.0 0.0 0.00 0.00 0.00 70 1023.9
20160930073508 53 96 0.0 0.0 0.00 0.00 0.00 71 1023.9
20160930073008 53 96 0.0 0.0 0.00 0.00 0.00 71 1024.0
20160930072508 53 96 0.0 0.0 0.00 0.00 0.00 71 1023.9
20160930072008 53 96 0.0 0.0 0.00 0.00 0.00 71 1024.0
20160930071507 53 96 0.0 0.0 0.00 0.00 0.00 71 1023.9
20160930071008 53 96 0.0 0.0 0.00 0.00 0.00 71 1024.0